CAPE
0 0 0 0 0 0 0 0 8 33 0 14 9 34 67 95 88 114 69 65 41 64 30 29 1 0 0 0 0 0 0 0 0 0 0 0 0 0 0 0 0 0 199 386 18
0 0 0 0 0 0 0 0 0 24 34 28 35 56 97 169 256 239 231 272 139 197 25 29 11 0 0 0 0 0 0 0 0 0 0 0 0 0 0 0 0 0 2 20 0
0 0 0 0 0 0 0 0 1 32 26 14 1 4 61 265 223 77 273 157 228 5 3 5 25 1 0 0 0 0 0 0 0 0 0 0 0 0 0 0 0 0 1 0 20
0 0 0 0 0 0 0 0 17 32 31 0 0 0 0 0 20 88 349 35 161 0 0 2 24 4 0 0 0 0 0 0 0 0 0 0 0 0 0 0 0 0 0 0 91
0 0 0 0 0 0 0 0 0 29 16 7 0 0 0 0 0 16 228 89 10 0 0 3 31 5 0 0 0 0 0 0 0 0 0 0 0 0 0 0 0 0 0 2 25
0 0 0 0 0 0 0 0 0 1 0 0 0 0 0 0 36 163 40 4 19 2 1 1 3 0 0 0 0 0 0 0 0 0 0 0 0 0 0 0 0 0 0 0 7
0 0 0 0 0 0 0 0 0 0 0 0 0 0 0 0 45 13 0 7 2 5 0 0 0 0 0 0 0 0 0 0 0 0 0 0 0 0 0 0 0 0 0 18 34
0 0 0 0 0 0 0 0 0 0 0 0 0 0 0 0 14 0 0 0 3 3 0 0 0 0 0 0 0 0 0 0 0 0 0 0 0 0 0 0 0 0 0 0 0
0 0 0 0 0 0 0 0 0 0 0 0 0 0 0 0 0 0 0 0 1 0 9 0 0 0 0 0 0 0 0 0 0 0 0 0 0 0 0 0 0 0 0 0 0
0 0 0 0 0 0 0 0 0 0 0 0 0 0 0 0 0 0 0 0 0 0 0 0 0 0 0 0 0 0 0 0 0 0 0 0 0 0 0 0 0 0 0 0 0
0 0 0 0 0 0 0 0 0 0 0 0 0 0 0 0 0 0 0 0 0 0 2 0 0 0 0 0 0 0 0 0 0 0 0 0 0 0 0 0 0 0 0 0 0
0 0 0 0 0 0 0 0 0 0 0 0 0 0 0 0 0 0 0 0 1 0 0 10 5 0 0 0 0 0 0 0 0 0 0 0 0 0 0 0 0 0 0 0 0
0 0 0 0 0 0 0 0 0 0 0 0 0 0 0 1 0 0 0 0 0 0 3 15 0 0 0 0 0 0 0 0 0 0 0 0 0 0 0 0 0 0 0 0 0
0 0 0 0 0 0 0 0 0 0 0 0 0 0 0 0 0 0 0 0 0 0 0 0 0 0 0 0 0 0 0 0 0 0 0 0 0 0 0 0 0 0 0 0 0
0 0 0 0 0 0 0 0 0 0 0 0 0 0 0 0 0 0 0 0 0 0 0 0 0 0 0 0 0 0 0 0 0 0 0 0 0 0 0 0 0 0 0 0 0
0 0 0 0 0 0 0 0 0 0 0 0 0 0 0 0 0 0 0 0 0 0 0 0 0 0 0 0 0 0 0 0 0 0 0 0 0 0 0 0 0 0 0 0 0
0 0 0 0 0 0 0 0 0 0 0 0 0 0 0 0 0 0 0 0 0 0 0 0 0 0 0 0 0 0 0 0 0 0 0 0 0 0 0 0 0 0 0 0 0
0 0 0 0 0 0 0 0 0 0 0 0 0 0 0 0 0 0 0 0 0 0 0 0 0 0 0 0 0 0 0 0 0 0 0 0 0 0 0 0 0 0 0 0 0
0 0 0 0 0 0 0 0 0 0 0 0 0 0 0 0 0 0 0 0 0 0 0 0 0 0 0 0 0 0 0 0 0 0 0 0 0 0 0 0 0 0 0 0 0
0 0 0 0 0 0 0 0 0 0 0 0 0 0 0 0 0 0 0 0 0 0 0 0 0 0 0 0 0 0 0 0 0 0 0 0 0 0 0 0 0 0 0 0 0
0 0 0 0 0 0 0 0 0 0 0 0 0 0 0 0 0 0 0 0 0 0 0 0 0 0 0 0 0 0 0 0 0 0 0 0 0 0 0 0 0 0 0 0 0
0 0 0 0 0 0 0 0 0 0 0 0 0 0 0 0 0 0 0 0 0 0 0 0 0 0 0 0 0 0 0 0 0 0 0 0 0 0 0 0 0 0 0 0 0
0 0 0 0 0 0 0 0 0 0 0 0 0 0 0 0 0 0 0 0 0 0 0 0 0 0 0 0 0 0 0 0 0 0 0 0 0 0 0 0 0 0 0 0 0
0 0 0 0 0 0 0 0 0 0 0 0 0 0 0 0 0 0 0 0 0 0 0 0 0 0 0 0 0 0 0 0 0 0 0 0 0 0 0 0 0 0 0 0 0
0 0 0 0 0 0 0 0 0 0 0 0 0 0 0 0 0 0 0 0 0 0 0 0 0 0 0 0 0 0 0 0 0 0 0 0 0 0 0 0 0 0 0 0 0
0 0 0 0 0 0 0 0 0 0 0 0 0 0 0 0 0 0 0 0 0 0 0 0 0 0 0 0 0 0 0 0 0 0 0 0 0 0 0 0 0 0 0 0 0
0 0 0 0 0 0 0 0 0 0 0 0 0 0 0 0 0 0 0 0 0 0 0 0 0 0 0 0 0 0 0 0 0 0 0 0 0 0 0 0 0 0 0 0 0
CIN
0 0 0 0 0 0 0 0 -21 -91 0 -7 -16 -4 0 -1 -5 -2 -4 -2 -11 -43 -41 -2 -3 0 0 0 0 0 0 0 0 0 0 0 0 0 0 0 0 0 -79 -88 -232
0 0 0 0 0 0 0 0 -3 -13 -11 -12 -24 -8 -6 -11 0 0 -2 -6 -15 -5 -37 -2 -6 0 0 0 0 0 0 0 0 0 0 0 0 0 0 0 0 0 -40 -293 0
0 0 0 0 0 0 0 0 -8 -16 -13 -18 -4 -36 -8 -3 0 -2 -4 -4 -1 -20 -64 -7 0 -1 0 0 0 0 0 0 0 0 0 0 0 0 0 0 0 0 -80 0 -153
0 0 0 0 0 0 0 0 -36 -32 -17 0 0 0 0 0 -1 -1 0 -14 -1 0 0 -39 -1 0 0 0 0 0 0 0 0 0 0 0 0 0 0 0 0 0 0 0 -147
0 0 0 0 0 0 0 0 0 -49 -49 -43 -11 0 0 0 -1 -8 -1 -2 -10 0 0 -6 -1 -1 0 0 0 0 0 0 0 0 0 0 0 0 0 0 0 0 0 -120 -145
0 0 0 0 0 0 0 0 0 -44 -25 0 0 0 0 -5 0 -1 -21 -35 -24 -28 -21 -35 -7 0 0 0 0 0 0 0 0 0 0 0 0 0 0 0 0 0 0 0 -139
0 0 0 0 0 0 0 0 0 0 0 0 0 0 0 0 -5 -29 -2 -28 -30 -2 0 0 -1 0 0 0 0 0 0 0 0 0 0 0 0 0 0 0 0 0 0 -102 -101
0 0 0 0 0 0 0 0 0 0 0 0 0 0 0 0 -6 0 0 0 -14 -4 0 0 0 0 0 0 0 0 0 0 0 0 0 0 0 0 0 0 0 0 0 0 0
0 0 0 0 0 0 0 0 0 0 0 0 0 0 0 0 0 0 0 0 -9 -7 -52 0 0 0 0 0 0 0 0 0 0 0 0 0 0 0 0 0 0 0 0 0 0
0 0 0 0 0 0 0 0 0 0 0 0 0 0 0 0 0 0 0 0 0 0 0 0 0 0 0 0 0 0 0 0 0 0 0 0 0 0 0 0 0 0 0 0 0
0 0 0 0 0 0 0 0 0 0 0 0 0 0 0 0 0 0 0 0 0 0 -3 0 0 0 0 0 0 0 0 0 0 0 0 0 0 0 0 0 0 0 0 0 0
0 0 0 0 0 0 0 0 0 0 0 0 0 0 0 0 0 0 0 0 -1 0 0 -9 -7 0 0 0 0 0 0 0 0 0 0 0 0 0 0 0 0 0 0 0 0
0 0 0 0 0 0 0 0 0 0 0 0 0 0 0 -2 0 0 0 0 0 0 -10 -3 0 0 0 0 0 0 0 0 0 0 0 0 0 0 0 0 0 0 0 0 0
0 0 0 0 0 0 0 0 0 0 0 0 0 0 0 0 0 0 0 0 0 0 0 0 0 0 0 0 0 0 0 0 0 0 0 0 0 0 0 0 0 0 0 0 0
0 0 0 0 0 0 0 0 0 0 0 0 0 0 0 0 0 0 0 0 0 0 0 0 0 0 0 0 0 0 0 0 0 0 0 0 0 0 0 0 0 0 0 0 0
0 0 0 0 0 0 0 0 0 0 0 0 0 0 0 0 0 0 0 0 0 0 0 0 0 0 0 0 0 0 0 0 0 0 0 0 0 0 0 0 0 0 0 0 0
0 0 0 0 0 0 0 0 0 0 0 0 0 0 0 0 0 0 0 0 0 0 0 0 0 0 0 0 0 0 0 0 0 0 0 0 0 0 0 0 0 0 0 0 0
0 0 0 0 0 0 0 0 0 0 0 0 0 0 0 0 0 0 0 0 0 0 0 0 0 0 0 0 0 0 0 0 0 0 0 0 0 0 0 0 0 0 0 0 0
0 0 0 0 0 0 0 0 0 0 0 0 0 0 0 0 0 0 0 0 0 0 0 0 0 0 0 0 0 0 0 0 0 0 0 0 0 0 0 0 0 0 0 0 0
0 0 0 0 0 0 0 0 0 0 0 0 0 0 0 0 0 0 0 0 0 0 0 0 0 0 0 0 0 0 0 0 0 0 0 0 0 0 0 0 0 0 0 0 0
0 0 0 0 0 0 0 0 0 0 0 0 0 0 0 0 0 0 0 0 0 0 0 0 0 0 0 0 0 0 0 0 0 0 0 0 0 0 0 0 0 0 0 0 0
0 0 0 0 0 0 0 0 0 0 0 0 0 0 0 0 0 0 0 0 0 0 0 0 0 0 0 0 0 0 0 0 0 0 0 0 0 0 0 0 0 0 0 0 0
0 0 0 0 0 0 0 0 0 0 0 0 0 0 0 0 0 0 0 0 0 0 0 0 0 0 0 0 0 0 0 0 0 0 0 0 0 0 0 0 0 0 0 0 0
0 0 0 0 0 0 0 0 0 0 0 0 0 0 0 0 0 0 0 0 0 0 0 0 0 0 0 0 0 0 0 0 0 0 0 0 0 0 0 0 0 0 0 0 0
0 0 0 0 0 0 0 0 0 0 0 0 0 0 0 0 0 0 0 0 0 0 0 0 0 0 0 0 0 0 0 0 0 0 0 0 0 0 0 0 0 0 0 0 0
0 0 0 0 0 0 0 0 0 0 0 0 0 0 0 0 0 0 0 0 0 0 0 0 0 0 0 0 0 0 0 0 0 0 0 0 0 0 0 0 0 0 0 0 0
0 0 0 0 0 0 0 0 0 0 0 0 0 0 0 0 0 0 0 0 0 0 0 0 0 0 0 0 0 0 0 0 0 0 0 0 0 0 0 0 0 0 0 0 0
Wind_Speed
32 33 34 37 39 39 36 32 30 27 24 23 13 4 3 8 10 15 21 18 21 22 25 28 28 26 28 31 32 28 37 42 35 30 20 13 13 12 15 14 16 16 16 6 1
30 31 31 34 35 36 37 33 28 25 24 24 21 12 8 2 10 16 16 13 15 18 25 30 32 28 32 33 32 33 37 34 27 25 22 15 16 13 13 13 16 14 11 2 1
28 29 29 31 32 32 34 34 27 22 23 22 23 17 8 2 8 18 14 14 11 17 22 26 30 30 35 33 34 35 39 26 24 23 21 15 18 14 16 17 17 13 6 1 2
26 27 28 27 28 28 26 26 23 21 22 23 19 13 12 13 12 16 5 8 9 13 21 27 29 33 36 38 34 35 31 28 24 22 21 16 16 19 18 17 16 14 3 2 4
24 24 25 24 23 23 21 8 12 19 20 21 19 14 12 11 13 12 5 8 11 21 23 27 32 33 38 36 32 35 28 23 20 20 20 17 17 19 16 16 14 8 4 4 6
22 22 22 18 19 17 15 12 4 6 10 1 16 15 11 13 15 8 8 11 14 22 23 25 28 31 34 34 33 29 26 22 21 19 19 18 18 17 15 13 9 6 5 5 9
21 20 19 14 14 9 8 8 7 8 15 13 10 11 10 13 10 10 12 16 19 25 21 26 27 27 28 31 28 24 25 22 21 20 20 19 20 19 14 11 10 7 6 6 13
20 19 18 13 11 8 7 8 12 16 18 17 11 9 12 12 11 12 13 16 18 22 21 27 23 25 29 22 27 29 25 30 24 22 20 21 24 17 14 12 10 8 7 10 15
19 17 16 12 9 9 10 14 18 21 19 19 16 17 20 12 13 12 13 13 15 22 25 24 20 25 25 31 31 33 35 31 25 23 20 22 18 17 15 14 12 11 10 14 15
18 17 15 12 7 8 13 18 22 19 17 16 14 17 20 12 12 16 22 11 16 19 20 16 19 27 30 34 41 37 34 31 26 24 23 21 17 16 16 15 14 15 15 17 19
17 17 17 13 10 12 19 17 20 24 27 27 8 6 12 9 19 12 15 27 23 15 14 15 24 32 32 31 27 30 32 29 20 22 23 23 19 17 17 18 17 18 18 18 20
15 16 15 14 12 11 19 24 22 19 23 22 16 2 9 12 12 9 15 7 3 11 14 13 20 21 24 25 25 28 29 27 22 22 23 22 24 17 18 19 20 20 19 20 20
14 14 13 13 14 17 21 20 15 16 19 21 20 8 4 7 7 5 9 9 8 5 7 10 16 18 24 26 24 27 29 25 25 21 20 20 25 22 21 18 19 20 21 21 21
15 13 13 12 15 15 15 14 13 14 20 15 14 16 9 9 8 7 9 10 9 8 8 9 14 17 23 26 24 29 22 20 20 21 26 22 27 24 19 18 18 17 17 18 18
15 15 17 18 16 15 13 12 14 16 28 10 14 13 13 14 9 10 11 11 9 9 14 14 13 15 21 25 21 24 20 18 19 22 21 23 24 19 19 19 16 15 15 16 16
11 14 17 19 19 15 13 14 16 22 29 18 15 14 19 17 17 15 11 10 10 10 10 10 12 15 16 16 16 15 16 16 18 20 28 23 24 22 19 20 15 13 14 15 16
10 14 18 17 19 16 17 16 22 26 19 20 19 16 16 17 18 16 11 10 10 10 10 12 14 15 16 16 16 17 20 23 25 27 28 22 23 20 17 16 14 14 14 15 16
10 11 16 18 16 17 17 18 26 21 23 19 19 17 22 16 18 17 17 16 11 11 7 13 18 18 17 18 19 19 19 23 27 28 25 19 26 21 15 14 14 13 14 14 15
12 16 16 14 14 16 17 24 23 22 20 20 19 21 20 19 18 17 18 19 19 18 12 13 15 16 17 17 18 20 24 16 19 20 23 22 21 18 16 16 13 13 13 14 16
15 16 18 13 13 16 19 23 21 20 19 18 19 18 20 18 18 18 19 19 20 16 18 19 12 16 18 18 16 19 17 21 19 23 26 24 26 25 18 16 14 14 14 16 18
16 15 19 16 17 20 23 22 21 19 17 17 18 18 18 17 17 17 18 19 16 16 16 19 14 15 18 19 18 18 20 20 19 20 24 26 25 19 17 12 11 13 15 17 18
17 16 18 16 19 21 21 20 19 18 17 16 16 16 17 17 17 16 18 17 17 15 17 16 14 9 15 16 18 20 20 21 24 24 22 24 27 17 13 10 10 14 17 17 17
16 17 17 16 18 20 19 19 17 17 16 17 16 16 15 15 15 16 16 16 16 17 18 16 20 10 11 14 17 21 19 20 19 21 25 28 26 16 13 10 11 15 17 18 19
16 16 17 18 18 17 16 17 17 16 16 15 16 16 15 15 14 14 14 15 17 18 17 18 19 20 22 17 15 14 14 11 16 25 26 28 26 20 16 15 15 18 21 22 22
18 16 15 16 16 16 16 14 15 15 14 14 14 13 14 14 13 14 13 13 15 15 16 20 17 20 20 23 25 24 22 18 19 22 30 26 24 26 22 20 21 22 23 23 23
19 18 16 15 14 13 14 12 12 13 13 13 13 13 12 12 12 12 12 12 11 13 14 14 11 14 19 17 22 27 32 18 18 27 35 35 36 27 24 20 20 21 21 22 22
20 17 17 16 15 14 14 12 10 12 12 13 12 12 10 10 10 11 12 11 10 9 8 8 8 7 4 7 26 14 19 19 12 20 18 17 31 27 23 20 20 19 19 18 18
Wind_Direction
33 30 27 23 21 17 6 353 346 339 349 349 3 50 327 271 254 247 248 258 256 247 243 240 239 240 236 232 237 241 236 237 241 244 252 258 263 276 283 282 279 281 291 303 258
35 31 30 26 26 25 15 4 349 355 2 5 19 67 82 149 233 243 260 260 259 243 236 234 232 235 231 229 233 233 235 238 245 250 249 254 262 268 277 277 278 283 297 324 252
36 33 32 31 31 33 30 11 355 348 8 17 16 8 15 122 241 248 261 267 261 249 239 239 236 232 228 227 228 231 234 244 247 250 258 251 260 270 272 272 276 272 266 250 209
37 35 34 35 34 35 39 40 344 348 11 19 346 316 249 246 260 259 273 293 274 253 236 239 233 226 225 224 226 228 239 244 244 249 252 253 262 267 266 278 285 287 249 192 230
39 38 36 37 38 40 47 79 288 324 20 19 331 285 259 270 282 277 291 293 276 233 233 236 226 224 223 224 221 231 234 243 244 246 251 257 260 265 264 280 286 292 269 241 250
41 39 38 42 42 47 62 80 148 244 114 36 306 271 303 271 297 332 309 289 268 238 231 228 229 223 225 221 223 231 231 236 242 244 251 252 260 263 269 281 289 290 281 260 255
42 42 42 46 43 56 87 100 119 134 101 134 243 275 348 300 326 331 299 267 249 226 233 229 241 226 225 215 226 223 226 231 240 243 251 251 255 256 271 273 278 287 279 264 253
45 46 49 53 49 77 102 102 101 101 93 113 155 33 331 320 345 324 309 277 254 226 220 232 238 232 222 224 223 221 226 226 239 241 250 247 248 259 267 266 272 278 271 260 253
48 52 57 62 67 86 94 93 92 91 97 101 115 111 53 333 298 321 249 239 234 224 221 232 233 226 220 212 216 221 225 226 236 242 245 244 250 256 261 264 267 271 267 260 259
50 58 65 72 82 96 94 92 89 100 104 106 119 105 100 179 213 203 180 251 224 214 220 232 236 215 214 214 216 220 225 227 235 236 241 239 258 261 258 261 265 267 267 261 261
57 63 71 81 89 89 85 95 91 86 81 78 125 160 144 193 163 203 198 159 187 220 230 238 221 212 213 218 230 229 231 226 233 240 240 241 255 261 259 260 263 265 264 265 263
63 66 75 82 96 95 87 84 92 103 87 87 105 255 173 172 17 355 197 228 310 224 229 234 218 223 219 221 229 225 224 228 240 241 244 246 249 261 264 262 263 264 263 266 269
67 69 78 87 92 93 84 89 109 112 98 89 97 131 226 322 359 312 220 239 272 293 284 252 236 231 221 219 226 226 226 230 236 236 249 249 251 256 263 269 266 267 265 269 273
66 68 76 91 90 99 98 100 113 120 94 92 107 110 164 195 330 251 238 246 285 269 279 272 243 228 219 221 231 225 237 234 232 231 241 249 252 253 259 264 266 267 268 273 281
68 72 74 78 92 99 105 113 118 118 75 104 110 134 133 157 229 285 263 286 292 301 263 246 238 227 222 225 235 232 235 234 235 240 247 246 257 258 258 259 262 267 273 280 289
76 76 82 78 80 99 117 115 114 89 75 99 112 122 123 128 142 158 206 306 282 318 353 247 243 232 229 231 236 228 227 234 243 246 245 250 253 262 255 258 260 271 279 286 295
86 82 77 83 81 96 107 113 87 78 102 95 103 119 125 125 127 140 182 309 300 312 284 243 233 232 229 226 230 232 222 230 236 240 247 255 254 270 265 266 267 274 284 292 299
95 91 84 81 87 93 99 96 76 91 94 111 113 117 108 130 125 129 134 151 198 237 256 233 222 228 237 230 232 228 234 236 238 241 249 259 256 262 270 273 278 285 292 299 306
87 79 81 88 96 94 100 74 82 93 106 106 112 105 108 118 127 127 121 132 149 162 215 235 234 240 233 236 235 234 236 257 256 258 256 259 266 276 270 273 281 288 296 303 310
69 71 67 91 103 94 87 74 90 106 108 109 98 110 103 117 119 118 122 146 142 164 169 180 232 233 231 236 245 244 245 248 261 253 255 263 266 268 269 268 277 286 295 304 311
56 62 53 82 87 76 67 81 95 109 113 106 99 104 109 118 123 126 130 154 167 167 174 175 224 234 233 238 241 246 250 257 268 269 264 266 271 289 277 270 275 293 298 305 311
41 52 46 73 59 62 64 77 90 99 109 107 114 114 109 117 120 127 137 152 188 193 166 195 226 265 249 254 253 254 259 261 262 266 274 279 277 301 298 277 280 294 301 307 312
28 30 43 56 48 51 60 65 75 84 98 93 101 115 122 117 114 126 139 163 225 194 184 221 174 271 286 287 276 264 267 272 279 283 274 275 281 305 302 292 288 295 302 305 307
17 12 23 28 28 44 51 53 56 68 70 90 89 106 107 113 121 115 132 147 195 204 256 232 171 173 206 282 296 290 286 285 283 277 280 278 287 296 293 288 287 289 297 300 302
357 1 11 9 14 21 28 43 45 47 58 68 72 93 94 87 100 108 111 130 154 181 179 210 180 195 194 222 269 279 285 285 277 281 281 294 291 295 291 287 287 290 296 301 305
346 348 353 358 8 13 15 22 32 31 40 41 45 56 73 62 82 80 98 108 113 129 148 158 152 175 205 193 211 221 230 290 285 283 281 283 287 296 300 296 295 298 300 304 307
339 344 340 340 343 346 350 2 11 14 13 12 24 29 37 43 40 34 24 32 45 74 93 100 97 85 101 18 264 217 217 211 219 288 292 282 293 297 295 294 295 300 303 306 312